McComb, MS

11:51 AM CDT on March 27, 2017 (GMT -0500)
McComb-Pike County-Lewis

Weather History for KMCB - August, 2012

Change the Weather History Date:

Tuesday, August 14, 2012

  Actual Average Record
Temperature  
Mean Temperature 85 °F -  
Max Temperature 93 °F 91 °F 102 °F (2007)
Min Temperature 77 °F 69 °F 57 °F (2004)
Cooling Degree Days 20    
Growing Degree Days 35 (Base 50)    
Moisture  
Dew Point 74 °F    
Average Humidity 77    
Maximum Humidity 96    
Minimum Humidity 47    
Precipitation  
Precipitation 0.00 in - - ()
Sea Level Pressure  
Sea Level Pressure 29.94 in    
Wind  
Wind Speed 6 mph (WSW)    
Max Wind Speed 14 mph    
Max Gust Speed 20 mph    
Visibility 10 miles    
Events      
Averages and records for this station are not official NWS values.
T = Trace of Precipitation, MM = Missing Value Source: NWS Daily Summary

Daily Weather History Graph

Daily Weather History Graph

Search for Another Location

Airport or City:

Trip Planner

Search our weather history database for the weather conditions in past years. The results will help you decide how hot, cold, wet, or windy it might be!

Date:

Astronomy

Aug. 14, 2012 Rise Set
Actual Time 6:27 AM CDT 7:45 PM CDT
Civil Twilight 6:01 AM CDT 8:10 PM CDT
Nautical Twilight 5:31 AM CDT 8:40 PM CDT
Astronomical Twilight 4:59 AM CDT 9:12 PM CDT
Moon 3:31 AM CDT (8/14) 5:35 PM CDT (8/14)
Length of Visible Light 14h 08m
Length of Day
13h 17m
Waning Crescent, 9% of the Moon is Illuminated
Aug 14
Waning Crescent
Aug 17
New
Aug 24
First Quarter
Aug 31
Full
Sep 8
Last Quarter

Hourly Weather History & Observations

Time (CDT) Temp. Heat Index Dew Point Humidity Pressure Visibility Wind Dir Wind Speed Gust Speed Precip Events Conditions
12:53 AM 78.1 °F - 75.9 °F 93% 29.94 in 10.0 mi South 5.8 mph - N/A   Clear
1:53 AM 77.0 °F - 75.9 °F 96% 29.96 in 10.0 mi Calm Calm - N/A   Clear
2:53 AM 77.0 °F - 75.9 °F 96% 29.95 in 10.0 mi Calm Calm - N/A   Clear
3:53 AM 77.0 °F - 75.9 °F 96% 29.94 in 9.0 mi WSW 3.5 mph - N/A   Clear
4:53 AM 77.0 °F - 75.9 °F 96% 29.94 in 9.0 mi SW 5.8 mph - N/A   Mostly Cloudy
5:53 AM 77.0 °F - 75.9 °F 96% 29.95 in 10.0 mi SW 5.8 mph - N/A   Scattered Clouds
6:53 AM 77.0 °F - 75.9 °F 96% 29.96 in 9.0 mi WSW 4.6 mph - N/A   Clear
7:15 AM 78.8 °F - 75.2 °F 89% 29.98 in 9.0 mi West 6.9 mph - N/A   Partly Cloudy
7:53 AM 79.0 °F - 77.0 °F 94% 29.96 in 10.0 mi WSW 8.1 mph - N/A   Partly Cloudy
8:11 AM 80.6 °F 87.1 °F 77.0 °F 89% 29.98 in 10.0 mi WSW 13.8 mph 19.6 mph N/A   Mostly Cloudy
8:36 AM 80.6 °F 87.1 °F 77.0 °F 89% 29.99 in 10.0 mi West 10.4 mph 19.6 mph N/A   Scattered Clouds
8:53 AM 82.9 °F 91.8 °F 77.0 °F 82% 29.97 in 10.0 mi WSW 10.4 mph 16.1 mph N/A   Partly Cloudy
9:53 AM 84.9 °F 92.1 °F 73.9 °F 69% 29.97 in 10.0 mi West 12.7 mph 19.6 mph N/A   Clear
10:53 AM 88.0 °F 96.5 °F 73.9 °F 63% 29.97 in 10.0 mi West 10.4 mph 16.1 mph N/A   Partly Cloudy
11:53 AM 90.0 °F 97.9 °F 73.0 °F 57% 29.96 in 10.0 mi WSW 9.2 mph 17.3 mph N/A   Scattered Clouds
12:53 PM 89.1 °F 98.0 °F 73.9 °F 61% 29.95 in 10.0 mi WSW 9.2 mph - N/A   Mostly Cloudy
1:53 PM 91.9 °F 100.7 °F 73.0 °F 54% 29.94 in 10.0 mi West 5.8 mph - N/A   Scattered Clouds
2:53 PM 93.0 °F 100.7 °F 72.0 °F 50% 29.91 in 10.0 mi West 6.9 mph - N/A   Partly Cloudy
3:53 PM 93.0 °F 100.1 °F 71.1 °F 49% 29.88 in 10.0 mi West 10.4 mph - N/A   Clear
4:53 PM 93.0 °F 99.0 °F 70.0 °F 47% 29.88 in 10.0 mi WSW 5.8 mph - N/A   Clear
5:53 PM 91.9 °F 98.4 °F 71.1 °F 50% 29.88 in 10.0 mi West 5.8 mph - N/A   Clear
6:53 PM 90.0 °F 99.0 °F 73.9 °F 59% 29.89 in 10.0 mi West 3.5 mph - N/A   Partly Cloudy
7:53 PM 88.0 °F 95.6 °F 73.0 °F 61% 29.90 in 10.0 mi North 6.9 mph - N/A   Clear
8:53 PM 81.0 °F 86.2 °F 73.9 °F 79% 29.91 in 10.0 mi Calm Calm - N/A   Clear
9:53 PM 80.1 °F 85.1 °F 75.0 °F 85% 29.93 in 10.0 mi ENE 3.5 mph - N/A   Clear
10:53 PM 78.1 °F - 75.0 °F 90% 29.93 in 10.0 mi Calm Calm - N/A   Mostly Cloudy
11:53 PM 77.0 °F - 73.9 °F 90% 29.92 in 9.0 mi Calm Calm - N/A   Clear